This is the latest recevied weather packets stored in our database for station/object WA6ODQ-13. If no packets are shown the sender has not sent any weather packets the latest 10 day(s).
| Time | Temp. | Humidity | Pressure | Rain* | Wind** | Luminosity | Snow |
|---|---|---|---|---|---|---|---|
| 1788477045 | 20.56° C | 78% | 1011 hPa | 0 mm | - | 148 W/m² | - |
| 1788476742 | 21.11° C | 76% | 1011.1 hPa | 0 mm | - | 140 W/m² | - |
| 1788476440 | 21.11° C | 76% | 1010.8 hPa | 0 mm | - | 169 W/m² | - |
| 1788476138 | 21.11° C | 76% | 1011 hPa | 0 mm | - | 190 W/m² | - |
| 1788475834 | 21.67° C | 74% | 1011 hPa | 0 mm | - | 183 W/m² | - |
| 1788475530 | 21.11° C | 75% | 1011 hPa | 0 mm | - | 181 W/m² | - |
| 1788475226 | 21.67° C | 74% | 1011.1 hPa | 0 mm | - | 155 W/m² | - |
| 1788474926 | 21.67° C | 73% | 1011.2 hPa | 0 mm | - | 170 W/m² | - |
| 1788474625 | 21.67° C | 74% | 1011.1 hPa | 0 mm | - | 172 W/m² | - |
| 1788474320 | 21.11° C | 74% | 1011 hPa | 0 mm | - | 165 W/m² | - |
| 1788474018 | 21.11° C | 75% | 1011 hPa | 0 mm | - | 142 W/m² | - |
| 1788473714 | 21.11° C | 75% | 1011.1 hPa | 0 mm | - | 150 W/m² | - |
| 1788473427 | 21.67° C | 73% | 1011.3 hPa | 0 mm | - | 139 W/m² | - |
| 1788473111 | 21.67° C | 73% | 1011.4 hPa | 0 mm | - | 225 W/m² | - |
| 1788472810 | 21.67° C | 73% | 1011.3 hPa | 0 mm | - | 214 W/m² | - |
| 1788472505 | 21.67° C | 73% | 1011.3 hPa | 0 mm | - | 165 W/m² | - |
| 1788472203 | 21.67° C | 73% | 1011.3 hPa | 0 mm | - | 116 W/m² | - |
| 1788471898 | 22.22° C | 73% | 1011.5 hPa | 0 mm | - | 204 W/m² | - |
| 1788471593 | 22.22° C | 71% | 1011.4 hPa | 0 mm | - | 337 W/m² | - |
| 1788471289 | 22.22° C | 72% | 1011.1 hPa | 0 mm | - | 322 W/m² | - |
| 1788470984 | 22.78° C | 71% | 1011.3 hPa | 0 mm | - | 359 W/m² | - |
| 1788470680 | 21.67° C | 73% | 1011.1 hPa | 0 mm | - | 351 W/m² | - |
| 1788470374 | 22.22° C | 71% | 1011.2 hPa | 0 mm | - | 297 W/m² | - |
| 1788470070 | 22.78° C | 70% | 1011.2 hPa | 0 mm | - | 439 W/m² | - |
| 1788469766 | 22.78° C | 70% | 1011.3 hPa | 0 mm | - | 960 W/m² | - |
* Rain latest hour (hover to see other rain measurements)
** Current wind speed in m/s (hover to see current wind gust speed)